Location: ???? ?????????
(44.3677°N, 135.2344°E)
Time: 06:40:54
(UTC+00:00)

USA 290 - Pass Details

Date: 19 May 2025
Orbit: 396 x 423 km, 73.6° (Epoch: 16 April)

Event Time Altitude Azimuth Distance (km) Brightness Sun altitude
Exits shadow 18:45:49 - 194° (SSW) 1,909 5.1 -7.0°
Reaches altitude 10° 18:46:56 10° 193° (SSW) 1,439 4.5 -6.8°
Maximum altitude 18:50:04 70° 110° (ESE) 428 2.4 -6.4°
Drops below altitude 10° 18:53:14 10° 26° (NNE) 1,449 6.1 -5.9°
Sets 18:55:16 0° 24° (NNE) 2,312 7.2 -5.6°
